| time (UTC) | temp F | wind direction | speed knots | gust knots | rain 1hr in | rain 24hr in | rain mn in | humidity % | barometer mb |
| 20260504190023 | 73 | 176 | 7.8 | 14.8 | 0.00 | 0.00 | 0.00 | 34 | 1003.9 |
| 20260504184520 | 72 | 127 | 7.8 | 21.7 | 0.00 | 0.00 | 0.00 | 37 | 1004.1 |
| 20260504183017 | 72 | 142 | 6.1 | 19.1 | 0.00 | 0.00 | 0.00 | 37 | 1004.3 |
| 20260504181525 | 72 | 134 | 11.3 | 20.0 | 0.00 | 0.00 | 0.00 | 36 | 1004.6 |
| 20260504180015 | 71 | 128 | 7.8 | 21.7 | 0.00 | 0.00 | 0.00 | 39 | 1004.6 |
| 20260504174512 | 71 | 105 | 7.0 | 15.6 | 0.00 | 0.00 | 0.00 | 40 | 1004.7 |
| 20260504173010 | 70 | 162 | 6.1 | 15.6 | 0.00 | 0.00 | 0.00 | 41 | 1004.6 |
| 20260504171607 | 70 | 150 | 8.7 | 20.0 | 0.00 | 0.00 | 0.00 | 40 | 1004.8 |
| 20260504081516 | 50 | 176 | 4.3 | 8.7 | 0.00 | 0.00 | 0.00 | 56 | 1007.4 |
| 20260504044526 | 50 | 168 | 0.9 | 6.1 | 0.00 | 0.00 | 0.00 | 58 | 1008.6 |
| 20260504043021 | 50 | 179 | 4.3 | 7.8 | 0.00 | 0.00 | 0.00 | 57 | 1008.7 |
| 20260504041516 | 51 | 129 | 3.5 | 9.6 | 0.00 | 0.00 | 0.00 | 56 | 1008.6 |
| 20260504040002 | 51 | 148 | 3.5 | 8.7 | 0.00 | 0.00 | 0.00 | 55 | 1008.7 |
| 20260504034556 | 51 | 147 | 3.5 | 7.8 | 0.00 | 0.00 | 0.00 | 54 | 1008.6 |
| 20260504033059 | 52 | 143 | 2.6 | 9.6 | 0.00 | 0.00 | 0.00 | 53 | 1008.6 |
| 20260504031558 | 52 | 168 | 3.5 | 9.6 | 0.00 | 0.00 | 0.00 | 52 | 1008.6 |
| 20260504030048 | 53 | 169 | 5.2 | 11.3 | 0.00 | 0.00 | 0.00 | 51 | 1008.8 |
| 20260504024547 | 53 | 179 | 3.5 | 13.0 | 0.00 | 0.00 | 0.00 | 50 | 1008.7 |
| 20260504023034 | 54 | 158 | 7.0 | 13.9 | 0.00 | 0.00 | 0.00 | 49 | 1008.8 |
| 20260504021530 | 54 | 153 | 6.1 | 13.9 | 0.00 | 0.00 | 0.00 | 49 | 1008.9 |
| 20260504020008 | 53 | 241 | 4.3 | 10.4 | 0.00 | 0.00 | 0.00 | 50 | 1009.1 |
| 20260504014502 | 54 | 173 | 6.1 | 11.3 | 0.00 | 0.00 | 0.00 | 48 | 1009.2 |
| 20260504013056 | 54 | 195 | 1.7 | 11.3 | 0.00 | 0.00 | 0.00 | 47 | 1009.2 |
| 20260504011543 | 54 | 176 | 4.3 | 11.3 | 0.00 | 0.00 | 0.00 | 47 | 1009.2 |
| 20260504010038 | 54 | 139 | 4.3 | 15.6 | 0.00 | 0.00 | 0.00 | 47 | 1009.1 |
| 20260504004542 | 54 | 160 | 7.0 | 19.1 | 0.00 | 0.00 | 0.00 | 47 | 1009.0 |
| 20260504003029 | 54 | 215 | 5.2 | 20.0 | 0.00 | 0.00 | 0.00 | 49 | 1009.5 |
| 20260504001525 | 54 | 170 | 8.7 | 16.5 | 0.00 | 0.00 | 0.00 | 47 | 1009.4 |
| 20260504000021 | 54 | 180 | 8.7 | 20.9 | 0.00 | 0.00 | 0.00 | 47 | 1009.5 |
| 20260503234516 | 54 | 233 | 7.8 | 18.2 | 0.00 | 0.00 | 0.00 | 46 | 1009.3 |
| 20260503233056 | 54 | 169 | 2.6 | 15.6 | 0.00 | 0.00 | 0.00 | 46 | 1009.2 |
| 20260503231555 | 54 | 175 | 6.1 | 18.2 | 0.00 | 0.00 | 0.00 | 46 | 1009.2 |
| 20260503230050 | 54 | 176 | 14.8 | 31.3 | 0.00 | 0.00 | 0.00 | 46 | 1009.5 |
| 20260503224542 | 55 | 223 | 7.0 | 20.9 | 0.00 | 0.00 | 0.00 | 45 | 1009.4 |
| 20260503223037 | 55 | 207 | 7.0 | 18.2 | 0.00 | 0.00 | 0.00 | 46 | 1009.4 |
| 20260503221533 | 56 | 172 | 7.0 | 26.1 | 0.00 | 0.00 | 0.00 | 44 | 1009.2 |
| 20260503220030 | 57 | 221 | 5.2 | 18.2 | 0.00 | 0.00 | 0.00 | 42 | 1009.1 |
| 20260503214521 | 56 | 231 | 7.0 | 22.6 | 0.00 | 0.00 | 0.00 | 42 | 1009.0 |
| 20260503213103 | 57 | 264 | 7.8 | 20.9 | 0.00 | 0.00 | 0.00 | 39 | 1009.1 |
| 20260503211603 | 58 | 153 | 5.2 | 16.5 | 0.00 | 0.00 | 0.00 | 40 | 1008.9 |
| 20260503210033 | 58 | 254 | 10.4 | 19.1 | 0.00 | 0.00 | 0.00 | 38 | 1008.7 |
| 20260503204531 | 58 | 231 | 5.2 | 20.9 | 0.00 | 0.00 | 0.00 | 40 | 1009.0 |
| 20260503203006 | 58 | 89 | 7.0 | 23.5 | 0.00 | 0.00 | 0.00 | 40 | 1009.1 |
| 20260503201502 | 58 | 159 | 8.7 | 20.9 | 0.00 | 0.00 | 0.00 | 39 | 1009.3 |
| 20260503200047 | 59 | 47 | 11.3 | 20.9 | 0.00 | 0.00 | 0.00 | 38 | 1009.6 |
| 20260503194545 | 58 | 144 | 6.1 | 23.5 | 0.00 | 0.00 | 0.00 | 38 | 1009.7 |
| 20260503193041 | 57 | 199 | 5.2 | 20.9 | 0.00 | 0.00 | 0.00 | 40 | 1009.9 |
| 20260503191533 | 56 | 216 | 8.7 | 22.6 | 0.00 | 0.00 | 0.00 | 40 | 1010.1 |